Погода в Туле

Хотите узнать прогноз погоды в Туле? Тогда Вам сюда: Погода в Туле

Поиск расширенной информации на нашем сайте:

Полезная информация:

Новости сайта



02.01.2020
Опубликован Долгосрочный прогноз погоды по городам России и ближнего зарубежья на январь 2020 года.
Карты: Прогноз на январь и февраль 2020 года, Сравнение прогнозируемой аномалии приземной температуры воздуха на январь 2020 года по разным моделям.




Погода в Туле - сегодня

Время (UTC), дата Ветер
(°,м/с) 
Видим.   Явления Облачность Т
(°С)
Тd
(°С)
f(%) Тe
(°С)
Pmin
(гПа)
dP
(гПа)
Po
(мм)
O2
(г/м3)
Тmin Tmax R s Состояние
почвы
12 19.10.20 300 (СЗ) 4{10}  10 км    8/3 600 м кучево-дожд., средняя, верхняя 
[Cb calv|Ac trans|Ci fib]
+7.5 -0.8 56 +6  1012.7  -0.1  741  291           
15 19.10.20 280 (З) 10 км    1/1 1000 м 
[Sc]
+5.3 -0.8 65 +4  1013.4  0.5  741  293      0.3     
18 19.10.20 330 (СЗ) 6-13{13}  10 км  слаб. ливневой дождь  10/10 600 м кучево-дожд. 
[Cb calv]
+3.8 +0.7 80 +1  1014.6  742  295    +9.5  0.0     
21 19.10.20 300 (СЗ) 3{13}  10 км  {ливн. осадки}  ясно 
+2 +0.4 89 +1  1014.9  0.3  742  297           
00 20.10.20 290 (З) 10 км  {ливн. осадки}  ясно 
+1.2 -0.2 90 1014.7  -0.3  742  298           
03 20.10.20 280 (З) 10 км    ясно 
+0.9 -0.2 92 -1  1014.9  0.2  742  298  +0.6    0.0     
06 20.10.20 290 (З) 10 км    9/9 600 м кучево-дожд. 
[Cb calv]
+1.5 +0.1 90 -1  1015.1  0.2  742  297  +0.3    0.0    влажная 
09 20.10.20 330 (СЗ) 4{11}  10 км    9/9 600 м кучево-дожд. 
[Cb calv]
+4.5 +0 73 +3  1015.1  0.2  743  294           
12 20.10.20 320 (СЗ) 5-10{11}  10 км    9/9 600 м кучево-дожд. 
[Cb calv]
+5.4 -0.1 68 +3  1015.6  0.6  743  294           
15 20.10.20 350 (С) 4{12}  10 км  в посл. час ливневой дождь  8/8 600 м кучево-дожд. 
[Cb calv]
+1.8 +1 94 1017.8  1.9  744  298         
18 20.10.20 350 (С) 10 км  {ливн. осадки}  ясно 
+0.4 -0.2 96 +1  1020.1  746  300    +5.9     
21 20.10.20 340 (С) 10 км    8/8 1000 м 
[Sc]
+0.7 +0.2 96 1021.7  1.6  747  300           
00 21.10.20 350 (С) 10 км    8/8 1000 м 
[Sc]
+0.8 -0.6 90 +1  1022.6  0.9  748  300           
03 21.10.20 360 (С) 10 км    6/6 1000 м 
[Sc]
-0.2 -0.5 98 -1  1024.2  1.4  749  302  -0.7         
06 21.10.20 300 (СЗ) 10 км    9/9 1000 м 
[Sc]
+0.3 -0.5 94 1024.6  0.5  749  302  -0.7        влажная 
09 21.10.20 290 (З) 10 км    10/10 1000 м 
[Sc]
+2.4 -0.6 81 +1  1024.2  -0.2  749  299           
12 21.10.20 300 (СЗ) 10 км  слаб. ливневой дождь  10/10 600 м кучево-дожд. 
[Cb calv]
+1.6 +0.5 92 -1  1023.8  -0.5  749  300           
15 21.10.20 170 (Ю) 10 км  слаб. ливневой дождь  10/10 600 м кучево-дожд. 
[Cb calv]
+2 +1.5 96 +1  1022  -1.7  747  299         
18 21.10.20 180 (Ю) 10 км  {ливн. осадки}  10/10 600 м кучево-дожд. 
[Cb calv]
+1.8 +1.3 96 +1  1020.4  -1.5  746  299    +2.4     
21 21.10.20 220 (ЮЗ) 10 км    10/10 600 м кучево-дожд. 
[Cb calv]
+2.8 +1.2 89 +4  1019.5  -0.8  746  297           
00 22.10.20 250 (З) 10 км    10/10 1000 м 
[Sc]
+3 +1.5 90 +4  1019.3  -0.2  746  297           
03 22.10.20 тихо ()   10 км    10/10 1000 м 
[Sc]
+3.8 +2.3 90 +4  1019.1  746  296  +1.8    0.5     
06 22.10.20 тихо ()   4000 м  дымка  10/8 1000 м средняя 
[Sc|Ac trans]
+4.4 +3.7 95 +4  1019.1  -0.1  746  295  +1.8        влажная 
09 22.10.20 230 (ЮЗ) 10 км    8/6 1000 м средняя 
[Sc|Ac trans]
+6.6 +4.3 85 +8  1018.8  -0.1  745  293           
12 22.10.20 230 (ЮЗ) 10 км    10/10 600 м кучево-дожд. 
[Cb calv]
+7.3 +4.6 83 +7  1016.8  -1.9  744  291           
Время (UTC), дата Ветер
(°,м/с) 
Видим.   Явления Облачность Т
(°С)
Тd
(°С)
f(%) Тe
(°С)
Pmin
(гПа)
dP
(гПа)
Po
(мм)
O2
(г/м3)
Тmin Tmax R s Состояние
почвы

Для получения пояснительной информации подведите курсор к названию столбца.

ПОГОДА в Туле - архив

Всё, что Вы хотите узнать о погоде в Туле - удобно и подробно!

Выберите нужную дату (начиная с 1 января 2019* года) и нажмите кнопку "Найти".
Будут отображены архивные сводки погоды по пункту Тула, начиная с указанной даты.


Отображать данные в формате CSV (для использования в таблицах Excel)


Внимание! Наш архив погоды предназначен исключительно для личного некоммерческого использования в познавательных целях. Если Вам необходимы официальные справки о состоянии погоды (для производственных, юридических, коммерческих и т.п. целей), обращайтесь в органы Росгидромета.

*Примечание: данная дата относится к архиву по метеостанциям СССР (Россия, СНГ, Балтия).
Архив по метеостанциям Зарубежной Европы и Азии (кроме Китая) хранится 10 дней, по другим регионам земного шара (Китай, Африка, Америка, Австралия, Океания) - 1 день.

Тула - район местоположения метеостанции


Название, широта, долгота, высота метеостанции:
Тула 54.2°ш. 37.6°д. 203 м над ур. моря [Российская Федерация]

Дополнительная информация

В oтличие oт бoльшинства пoгoдных сайтoв мы публикуем пoдрoбную метеoинфoрмацию в детальнoм прoфессиoнальнoм фoрмате.

Характеристики температуры и влажнoсти вoздуха измеряются на высoте 2 м в тени вдали oт зданий и деревьев.
Скoрoсть ветра измеряется на высoте 10 м (на урoвне рoста челoвека скoрoсть ветра ниже в 1.5-2 раза). Если метеoстанция нахoдится в гoрoде или в лесу, тo скoрoсть ветра занижена на 2-4 м/с пo сравнению с oткрытым местoм. Скoрoсть ветра над акватoриями крупных рек и oзёр, а также на вершинах хoлмoв на 2-5 м/с выше, чем в oбычных услoвиях.
Атмoсфернoе давление в разных тoчках местнoсти мoжет значительнo oтличаться oт давления на метеoстанции, в зависимoсти oт услoвий рельефа (при пoдъёме на 10 м давление пoнижается примернo на 1 мм рт.ст.).